Regional Weather Roundup
Issued by NWS

Home | Current Version | Previous Version | Graphics & Text | Print | Product List | Glossary On
Versions: 1 2 3 4 5 6 7 8 9 10 11 12 13 14 15 16 17 18 19 20 21 22 23 24 25 26 27 28 29 30 31 32 33 34 35 36 37 38 39 40 41 42 43 44 45 46 47 48 49 50
000
ASUS43 KTOP 222008
RWRKS

WEATHER ROUNDUP FOR KANSAS
NATIONAL WEATHER SERVICE GOODLAND KS
300 PM CDT FRI JUN 22 2018

NOTE:  "FAIR" INDICATES FEW OR NO CLOUDS BELOW 12,000 FEET WITH NO
SIGNIFICANT WEATHER AND/OR OBSTRUCTIONS TO VISIBILITY.

KSZ001>006-013>018-027>032-041>047-222100-
NORTHWEST KANSAS

CITY           SKY/WX    TMP DP  RH WIND       PRES   REMARKS
GOODLAND       MOSUNNY   79  58  48 S13G25    29.88F
HAYS           SUNNY     81  57  43 NW5       29.86F
HILL CITY      SUNNY     81  56  42 E6        29.88F
RUSSELL        SUNNY     79  58  48 CALM      29.86F
$$

KSZ061>065-074>080-084>089-222100-
SOUTHWEST KANSAS

CITY           SKY/WX    TMP DP  RH WIND       PRES   REMARKS
DODGE CITY     SUNNY     86  53  32 S7        29.87F
ELKHART        SUNNY     88  67  48 S21G31    29.86F
GARDEN CITY    SUNNY     82  55  39 SE16G23   29.86F
GREAT BEND     SUNNY     81  55  40 VRB6      29.86F
LIBERAL        SUNNY     88  58  36 S29       29.85F
PRATT          SUNNY     84  51  31 CALM      29.85F
$$

KSZ066>073-081>083-090>101-222100-
SOUTHEAST KANSAS

CITY           SKY/WX    TMP DP  RH WIND       PRES   REMARKS
CHANUTE        PTSUNNY   78  64  61 NW7       29.84F
COFFEYVILLE    MOSUNNY   80  63  55 W6        29.83F
HUTCHINSON     SUNNY     79  59  50 N6        29.85F
MEDICINE LODGE   N/A     85  57  38 W6        29.82F
NEWTON         SUNNY     77  59  53 NW8       29.87F
PARSONS        PTSUNNY   79  63  57 VRB5      29.85F
WICHITA INTL   MOSUNNY   84  57  39 NW7       29.83F
WICHITA JABRA  SUNNY     79  59  50 W9        29.85F
WICHITA MCCONL SUNNY     81  56  42 N9        29.84F
WINFIELD       CLOUDY    82  59  45 VRB7      29.84F
$$

KSZ007>012-019>026-033>040-048>060-102>105-222100-
NORTHEAST KANSAS

CITY           SKY/WX    TMP DP  RH WIND       PRES   REMARKS
CONCORDIA      PTSUNNY   71  59  65 NE6       29.87F
EMPORIA        CLOUDY    77  61  57 W8        29.85F
LAWRENCE       CLOUDY    75  63  66 NW6       29.84F
MANHATTAN      CLOUDY    70  61  73 W5        29.87F
MARYSVILLE     CLOUDY    66  61  82 NW9       29.89S
OLATHE IND     CLOUDY    74  63  68 NW12G21   29.84F
OLATHE EXE     PTSUNNY   73  63  70 NW8       29.84F
SALINA         SUNNY     76  61  59 NE8       29.87F
TOPEKA BILLARD CLOUDY    70  64  81 W7        29.86F
TOPEKA FORBES  CLOUDY    72  65  78 NW9       29.86R
$$



USA.gov is the U.S. government's official web portal to all federal, state and local government web resources and services.